Weather History for MKJP - November, 2012

Change the Weather History Date:

Sunday, November 11, 2012

  Actual Average Record
Temperature  
Mean Temperature 83 °F -  
Max Temperature 89 °F 85 °F 93 °F (2013)
Min Temperature 77 °F 76 °F 73 °F (2007)
Cooling Degree Days 18    
Growing Degree Days 33 (Base 50)    
Moisture  
Dew Point 72 °F    
Average Humidity 67    
Maximum Humidity 83    
Minimum Humidity 53    
Precipitation  
Precipitation 0.00 in - - ()
Sea Level Pressure  
Sea Level Pressure 29.92 in    
Wind  
Wind Speed 6 mph ()    
Max Wind Speed 12 mph    
Max Gust Speed -    
Visibility 6.2 miles    
Events Thunderstorm    
Averages and records for this station are not official NWS values.
T = Trace of Precipitation, MM = Missing Value Source: Averaged Metar Reports

Daily Weather History Graph

Daily Weather History Graph

Search for Another Location

Airport or City:

Trip Planner

Search our weather history database for the weather conditions in past years. The results will help you decide how hot, cold, wet, or windy it might be!

Date:

Astronomy

Nov. 11, 2012 Rise Set
Actual Time 6:11 AM EST 5:31 PM EST
Civil Twilight 5:48 AM EST 5:53 PM EST
Nautical Twilight 5:22 AM EST 6:20 PM EST
Astronomical Twilight 4:56 AM EST 6:46 PM EST
Moon 3:40 AM EST (11/11) 3:39 PM EST (11/11)
Length of Visible Light 12h 05m
Length of Day
11h 20m
Waning Crescent, 7% of the Moon is Illuminated
Nov 11
Waning Crescent
Nov 13
New
Nov 20
First Quarter
Nov 28
Full
Dec 6
Last Quarter

Hourly Weather History & Observations

Time (EST) Temp. Heat Index Dew Point Humidity Pressure Visibility Wind Dir Wind Speed Gust Speed Precip Events Conditions
12:00 AM 80.6 °F 83.9 °F 69.8 °F 70% 29.95 in 6.2 mi WSW 4.6 mph - N/A   Partly Cloudy
1:00 AM 79 °F - 73 °F 76% 29.93 in 4 mi NNW 4.6 mph - -   Haze
1:00 AM 78.8 °F - 73.4 °F 83% 29.92 in 6.2 mi NNW 4.6 mph - N/A   Partly Cloudy
2:00 AM 80.6 °F 84.6 °F 71.6 °F 74% 29.89 in 6.2 mi North 4.6 mph - N/A   Mostly Cloudy
3:00 AM 80.6 °F 83.9 °F 69.8 °F 70% 29.89 in 6.2 mi NNW 6.9 mph - N/A   Scattered Clouds
4:00 AM 80 °F - 72 °F 69% 29.89 in 4 mi NE 4.6 mph - -   Haze
4:00 AM 80.6 °F 84.6 °F 71.6 °F 74% 29.89 in 6.2 mi NE 4.6 mph - N/A   Scattered Clouds
5:00 AM 80.6 °F 83.9 °F 69.8 °F 70% 29.89 in 6.2 mi North 4.6 mph - N/A   Scattered Clouds
6:00 AM 80.6 °F 83.9 °F 69.8 °F 70% 29.92 in 6.2 mi NNE 5.8 mph - N/A   Partly Cloudy
7:00 AM 80 °F - 71 °F 68% 29.94 in 5 mi NNE 5.8 mph - -   Haze
7:00 AM 80.6 °F 84.6 °F 71.6 °F 74% 29.92 in 6.2 mi NNE 5.8 mph - N/A   Partly Cloudy
8:00 AM 80.6 °F 84.6 °F 71.6 °F 74% 29.92 in 6.2 mi NE 6.9 mph - N/A   Partly Cloudy
9:00 AM 84.2 °F 90.9 °F 73.4 °F 70% 29.98 in 6.2 mi East 6.9 mph - N/A   Partly Cloudy
10:00 AM 85 °F - 73 °F 60% 29.98 in 5 mi SSW 5.8 mph - -   Haze
10:00 AM 84.2 °F 90.9 °F 73.4 °F 70% 29.98 in 6.2 mi SSW 5.8 mph - N/A   Partly Cloudy
11:00 AM 86.0 °F 91.8 °F 71.6 °F 62% 29.98 in 6.2 mi SSW 6.9 mph - N/A   Partly Cloudy
12:00 PM 86.0 °F 91.8 °F 71.6 °F 62% 29.92 in 6.2 mi South 10.4 mph - N/A   Scattered Clouds
1:00 PM 87 °F - 72 °F 53% 29.92 in 19 mi SSW 8.1 mph - -   Haze
1:00 PM 86.0 °F 91.8 °F 71.6 °F 62% 29.92 in 6.2 mi SSW 8.1 mph - N/A   Partly Cloudy
2:00 PM 87.8 °F 93.8 °F 71.6 °F 58% 29.89 in 6.2 mi SSW 8.1 mph - N/A   Partly Cloudy
3:00 PM 87.8 °F 95.6 °F 73.4 °F 62% 29.89 in 6.2 mi SSW 9.2 mph - N/A   Partly Cloudy
4:00 PM 88 °F - 76 °F 60% 29.88 in 3 mi SSE 10.4 mph - - Thunderstorm Thunderstorm
4:00 PM 87.8 °F 97.6 °F 75.2 °F 66% 29.86 in 6.2 mi SSE 10.4 mph - N/A Thunderstorm Thunderstorm
4:28 PM 87.8 °F 93.8 °F 71.6 °F 58% 29.89 in 6.2 mi South 8.1 mph - N/A   Partly Cloudy
5:00 PM 89.6 °F 96.2 °F 71.6 °F 55% 29.89 in 6.2 mi South 5.8 mph - N/A   Partly Cloudy
6:00 PM 86.0 °F 91.8 °F 71.6 °F 62% 29.89 in 6.2 mi WSW 8.1 mph - N/A   Partly Cloudy
7:00 PM 84 °F - 71 °F 56% 29.92 in 4 mi NW 9.2 mph - -   Haze
7:00 PM 84.2 °F 89.6 °F 71.6 °F 66% 29.92 in 6.2 mi NW 9.2 mph - N/A   Partly Cloudy
8:00 PM 82.4 °F 89.5 °F 75.2 °F 79% 29.89 in 6.2 mi WNW 4.6 mph - N/A   Partly Cloudy
9:00 PM 82.4 °F 86.3 °F 69.8 °F 66% 29.95 in 6.2 mi SSW 6.9 mph - N/A   Partly Cloudy
10:00 PM 82 °F - 71 °F 62% 29.96 in 4 mi SSW 11.5 mph - -   Haze
10:00 PM 82.4 °F 87.2 °F 71.6 °F 70% 29.95 in 6.2 mi SSW 11.5 mph - N/A   Partly Cloudy
11:00 PM 82.4 °F 87.2 °F 71.6 °F 70% 29.95 in 6.2 mi West 9.2 mph - N/A   Partly Cloudy